Time,TemperatureF,DewpointF,PressureIn,WindDirection,WindDirectionDegrees,WindSpeedMPH,WindSpeedGustMPH,Humidity,HourlyPrecipIn,Conditions,Clouds,dailyrainin,SolarRadiationWatts/m^2,SoftwareType,DateUTC
2013-07-28 00:00:00,60.0,57.7,29.64,ESE,115,3.5,3.5,92,0.00,RA,,0.00,0.0,WeatherDisplay:10.37,2013-07-27 23:00:00,
2013-07-28 00:05:00,59.9,57.6,29.64,ESE,113,3.5,3.5,92,0.01,RA,,0.01,0.0,WeatherDisplay:10.37,2013-07-27 23:05:00,
2013-07-28 00:10:00,59.9,57.6,29.64,ESE,114,3.5,3.5,92,0.01,RA,,0.01,0.0,WeatherDisplay:10.37,2013-07-27 23:10:00,
2013-07-28 00:15:00,59.9,57.6,29.64,ESE,115,5.8,5.8,92,0.01,CLR,,0.01,0.0,WeatherDisplay:10.37,2013-07-27 23:15:00,
2013-07-28 00:21:00,59.8,57.5,29.64,ESE,117,4.6,4.6,92,0.01,CLR,,0.01,0.0,WeatherDisplay:10.37,2013-07-27 23:21:00,
2013-07-28 00:26:00,59.7,57.1,29.64,ESE,123,4.0,4.0,91,0.01,CLR,,0.01,0.0,WeatherDisplay:10.37,2013-07-27 23:26:00,
2013-07-28 00:31:00,59.6,57.0,29.64,ESE,119,4.6,4.6,91,0.01,CLR,,0.01,0.0,WeatherDisplay:10.37,2013-07-27 23:31:00,
2013-07-28 00:36:00,59.5,56.9,29.64,ESE,119,3.5,3.5,91,0.01,CLR,,0.01,0.0,WeatherDisplay:10.37,2013-07-27 23:36:00,
2013-07-28 00:41:00,59.4,56.8,29.64,ESE,117,4.6,4.6,91,0.01,CLR,,0.01,0.0,WeatherDisplay:10.37,2013-07-27 23:41:00,
2013-07-28 00:46:00,59.3,56.7,29.64,ESE,121,5.0,5.0,91,0.01,CLR,,0.01,0.0,WeatherDisplay:10.37,2013-07-27 23:46:00,
2013-07-28 00:51:00,59.2,56.6,29.64,ESE,121,4.6,4.6,91,0.01,CLR,,0.01,0.0,WeatherDisplay:10.37,2013-07-27 23:51:00,
2013-07-28 00:56:00,59.2,56.6,29.64,SE,128,7.0,7.0,91,0.01,CLR,,0.01,0.0,WeatherDisplay:10.37,2013-07-27 23:56:00,
2013-07-28 01:01:00,59.1,56.5,29.64,ESE,121,6.9,6.9,91,0.01,CLR,,0.01,0.0,WeatherDisplay:10.37,2013-07-28 00:01:00,
2013-07-28 01:06:00,59.0,56.4,29.64,ESE,115,5.8,5.8,91,0.00,CLR,,0.01,0.0,WeatherDisplay:10.37,2013-07-28 00:06:00,
2013-07-28 01:11:00,59.0,56.4,29.64,ESE,115,3.5,3.5,91,0.00,CLR,,0.01,0.0,WeatherDisplay:10.37,2013-07-28 00:11:00,
2013-07-28 01:16:00,59.0,56.4,29.64,ESE,115,3.5,3.5,91,0.00,CLR,,0.01,0.0,WeatherDisplay:10.37,2013-07-28 00:16:00,
2013-07-28 01:21:00,59.0,56.4,29.64,ESE,116,3.5,3.5,91,0.00,CLR,,0.01,0.0,WeatherDisplay:10.37,2013-07-28 00:21:00,
2013-07-28 01:26:00,59.0,56.4,29.64,ESE,116,4.0,4.0,91,0.00,CLR,,0.01,0.0,WeatherDisplay:10.37,2013-07-28 00:26:00,
2013-07-28 01:31:00,59.0,56.4,29.64,ESE,115,4.0,4.0,91,0.00,CLR,,0.01,0.0,WeatherDisplay:10.37,2013-07-28 00:31:00,
2013-07-28 01:36:00,59.0,56.4,29.63,ESE,112,3.5,3.5,91,0.00,CLR,,0.01,0.0,WeatherDisplay:10.37,2013-07-28 00:36:00,
2013-07-28 01:41:00,58.9,56.3,29.63,ESE,113,4.0,4.0,91,0.00,CLR,,0.01,0.0,WeatherDisplay:10.37,2013-07-28 00:41:00,
2013-07-28 01:46:00,58.9,56.3,29.63,ESE,113,3.0,0.0,91,0.00,CLR,,0.01,0.0,WeatherDisplay:10.37,2013-07-28 00:46:00,
2013-07-28 01:51:00,58.9,56.3,29.63,ESE,111,3.0,3.0,91,0.00,CLR,,0.01,0.0,WeatherDisplay:10.37,2013-07-28 00:51:00,
2013-07-28 01:56:00,58.9,56.3,29.62,ESE,113,3.5,3.5,91,0.00,CLR,,0.01,0.0,WeatherDisplay:10.37,2013-07-28 00:56:00,
2013-07-28 02:02:00,58.9,56.3,29.62,ESE,113,1.2,1.2,91,0.00,CLR,,0.01,0.0,WeatherDisplay:10.37,2013-07-28 01:02:00,
2013-07-28 02:07:00,58.9,56.3,29.62,ESE,112,3.5,0.0,91,0.00,CLR,,0.01,0.0,WeatherDisplay:10.37,2013-07-28 01:07:00,
2013-07-28 02:12:00,58.9,56.3,29.62,ESE,113,0.0,0.0,91,0.00,CLR,,0.01,0.0,WeatherDisplay:10.37,2013-07-28 01:12:00,
2013-07-28 02:17:00,58.9,56.6,29.62,ESE,112,0.0,0.0,92,0.00,CLR,,0.02,0.0,WeatherDisplay:10.37,2013-07-28 01:17:00,
2013-07-28 02:22:00,58.9,56.6,29.62,ESE,113,1.2,0.0,92,0.01,RA,,0.02,0.0,WeatherDisplay:10.37,2013-07-28 01:22:00,
2013-07-28 02:27:00,58.9,56.6,29.61,ESE,113,0.0,0.0,92,0.01,,,0.02,0.0,WeatherDisplay:10.37,2013-07-28 01:27:00,
2013-07-28 02:32:00,58.9,56.6,29.61,ESE,111,0.0,0.0,92,0.01,CLR,,0.02,0.0,WeatherDisplay:10.37,2013-07-28 01:32:00,
2013-07-28 02:37:00,58.9,56.6,29.61,ESE,113,0.0,0.0,92,0.01,CLR,,0.02,0.0,WeatherDisplay:10.37,2013-07-28 01:37:00,
2013-07-28 02:42:00,58.9,56.6,29.61,ESE,113,0.0,0.0,92,0.01,CLR,,0.02,0.0,WeatherDisplay:10.37,2013-07-28 01:42:00,
2013-07-28 02:47:00,58.9,56.6,29.61,ESE,113,0.0,0.0,92,0.02,RA,,0.02,0.0,WeatherDisplay:10.37,2013-07-28 01:47:00,
2013-07-28 02:52:00,58.9,56.6,29.61,ESE,112,0.0,0.0,92,0.02,RA,,0.02,0.0,WeatherDisplay:10.37,2013-07-28 01:52:00,
2013-07-28 02:57:00,58.9,56.6,29.60,ESE,113,0.0,0.0,92,0.02,RA,,0.03,0.0,WeatherDisplay:10.37,2013-07-28 01:57:00,
2013-07-28 03:02:00,58.9,56.6,29.60,ESE,113,0.0,0.0,92,0.02,RA,,0.03,0.0,WeatherDisplay:10.37,2013-07-28 02:02:00,
2013-07-28 03:07:00,58.9,56.6,29.60,ESE,111,0.0,0.0,92,0.02,,,0.03,0.0,WeatherDisplay:10.37,2013-07-28 02:07:00,
2013-07-28 03:12:00,58.9,56.6,29.60,ESE,112,0.0,0.0,92,0.02,CLR,,0.03,0.0,WeatherDisplay:10.37,2013-07-28 02:12:00,
2013-07-28 03:17:00,58.9,56.6,29.60,ESE,113,0.0,0.0,92,0.02,CLR,,0.03,0.0,WeatherDisplay:10.37,2013-07-28 02:17:00,
2013-07-28 03:22:00,58.9,56.6,29.59,ESE,113,0.0,0.0,92,0.02,RA,,0.05,0.0,WeatherDisplay:10.37,2013-07-28 02:22:00,
2013-07-28 03:27:00,58.9,56.6,29.59,ESE,113,0.0,0.0,92,0.03,RA,,0.05,0.0,WeatherDisplay:10.37,2013-07-28 02:27:00,
2013-07-28 03:32:00,58.9,56.6,29.59,ESE,113,0.0,0.0,92,0.03,RA,,0.06,0.0,WeatherDisplay:10.37,2013-07-28 02:32:00,
2013-07-28 03:37:00,58.9,56.6,29.59,ESE,113,0.0,0.0,92,0.04,RA,,0.06,0.0,WeatherDisplay:10.37,2013-07-28 02:37:00,
2013-07-28 03:42:00,58.9,56.6,29.59,ESE,112,0.0,0.0,92,0.05,RA,,0.06,0.0,WeatherDisplay:10.37,2013-07-28 02:42:00,
2013-07-28 03:47:00,58.9,56.6,29.59,ESE,113,0.0,0.0,92,0.04,RA,,0.06,0.0,WeatherDisplay:10.37,2013-07-28 02:47:00,
2013-07-28 03:52:00,58.9,56.6,29.59,ESE,113,0.0,0.0,92,0.04,,,0.06,0.0,WeatherDisplay:10.37,2013-07-28 02:52:00,
2013-07-28 03:57:00,58.9,56.6,29.59,ESE,111,0.0,0.0,92,0.03,CLR,,0.06,0.0,WeatherDisplay:10.37,2013-07-28 02:57:00,
2013-07-28 04:02:00,58.9,56.6,29.59,ESE,113,0.0,0.0,92,0.03,CLR,,0.06,0.0,WeatherDisplay:10.37,2013-07-28 03:02:00,
2013-07-28 04:07:00,58.9,56.6,29.58,ESE,113,0.0,0.0,92,0.04,RA,,0.07,0.0,WeatherDisplay:10.37,2013-07-28 03:07:00,
2013-07-28 04:12:00,58.9,56.9,29.58,ESE,113,0.0,0.0,93,0.05,RA,,0.08,0.0,WeatherDisplay:10.37,2013-07-28 03:12:00,
2013-07-28 04:17:00,58.9,56.9,29.58,ESE,113,0.0,0.0,93,0.05,RA,,0.08,0.0,WeatherDisplay:10.37,2013-07-28 03:17:00,
2013-07-28 04:22:00,58.9,56.6,29.58,ESE,113,0.0,0.0,92,0.05,RA,,0.09,0.0,WeatherDisplay:10.37,2013-07-28 03:22:00,
2013-07-28 04:27:00,58.9,56.9,29.58,ESE,113,0.0,0.0,93,0.07,RA,,0.12,0.0,WeatherDisplay:10.37,2013-07-28 03:27:00,
2013-07-28 04:33:00,58.9,56.9,29.58,ESE,111,0.0,0.0,93,0.08,RA,,0.13,0.0,WeatherDisplay:10.37,2013-07-28 03:33:00,
2013-07-28 04:38:00,58.9,56.9,29.58,ESE,112,0.0,0.0,93,0.08,RA,,0.13,0.0,WeatherDisplay:10.37,2013-07-28 03:38:00,
2013-07-28 04:43:00,58.9,56.9,29.58,ESE,113,0.0,0.0,93,0.08,RA,,0.14,0.0,WeatherDisplay:10.37,2013-07-28 03:43:00,
2013-07-28 04:48:00,58.9,56.9,29.57,ESE,113,0.0,0.0,93,0.09,RA,,0.15,0.0,WeatherDisplay:10.37,2013-07-28 03:48:00,
2013-07-28 04:53:00,58.9,56.9,29.57,ESE,113,0.0,0.0,93,0.09,RA,,0.16,0.0,WeatherDisplay:10.37,2013-07-28 03:53:00,
2013-07-28 04:58:00,58.9,56.9,29.57,ESE,113,0.0,0.0,93,0.10,RA,,0.17,0.0,WeatherDisplay:10.37,2013-07-28 03:58:00,
2013-07-28 05:01:00,59.0,57.0,29.57,ESE,113,0.0,0.0,93,0.10,RA,,0.17,0.0,WeatherDisplay:10.37,2013-07-28 04:01:00,
2013-07-28 05:02:00,59.0,57.0,29.57,ESE,113,0.0,0.0,93,0.10,RA,,0.17,0.0,WeatherDisplay:10.37,2013-07-28 04:02:00,
2013-07-28 05:07:00,59.0,57.0,29.57,ESE,113,0.0,0.0,93,0.10,RA,,0.17,0.0,WeatherDisplay:10.37,2013-07-28 04:07:00,
2013-07-28 05:12:00,59.0,57.0,29.56,ESE,113,0.0,0.0,93,0.10,RA,,0.18,0.0,WeatherDisplay:10.37,2013-07-28 04:12:00,
2013-07-28 05:17:00,59.0,57.0,29.56,ESE,113,0.0,0.0,93,0.13,RA,,0.21,0.0,WeatherDisplay:10.37,2013-07-28 04:17:00,
2013-07-28 05:22:00,59.0,57.0,29.56,ESE,112,0.0,0.0,93,0.13,RA,,0.22,0.0,WeatherDisplay:10.37,2013-07-28 04:22:00,
2013-07-28 05:27:00,59.0,57.0,29.56,ESE,113,0.0,0.0,93,0.13,RA,,0.27,0.0,WeatherDisplay:10.37,2013-07-28 04:27:00,
2013-07-28 05:32:00,58.9,56.9,29.56,ESE,111,0.0,0.0,93,0.25,RA,,0.39,0.0,WeatherDisplay:10.37,2013-07-28 04:32:00,
2013-07-28 05:37:00,58.9,56.9,29.55,ESE,110,0.0,0.0,93,0.29,RA,,0.43,0.0,WeatherDisplay:10.37,2013-07-28 04:37:00,
2013-07-28 05:42:00,58.8,56.8,29.56,ESE,111,0.0,0.0,93,0.33,RA,,0.48,0.0,WeatherDisplay:10.37,2013-07-28 04:42:00,
2013-07-28 05:47:00,58.8,56.8,29.55,ESE,111,0.0,0.0,93,0.42,RA,,0.60,0.0,WeatherDisplay:10.37,2013-07-28 04:47:00,
2013-07-28 05:52:00,58.7,56.7,29.55,ESE,111,0.0,0.0,93,0.53,RA,,0.69,0.0,WeatherDisplay:10.37,2013-07-28 04:52:00,
2013-07-28 05:57:00,58.6,56.3,29.55,ESE,112,0.0,0.0,92,0.55,RA,,0.72,0.0,WeatherDisplay:10.37,2013-07-28 04:57:00,
2013-07-28 06:02:00,58.4,56.1,29.55,SW,214,4.0,4.0,92,0.61,RA,,0.80,0.0,WeatherDisplay:10.37,2013-07-28 05:02:00,
2013-07-28 06:07:00,58.1,55.8,29.55,SW,223,4.6,4.6,92,0.75,RA,,0.96,0.0,WeatherDisplay:10.37,2013-07-28 05:07:00,
2013-07-28 06:12:00,57.7,55.4,29.55,SW,231,3.5,3.5,92,0.91,RA,,1.13,0.0,WeatherDisplay:10.37,2013-07-28 05:12:00,
2013-07-28 06:17:00,57.3,55.0,29.55,SW,230,3.5,3.5,92,1.08,RA,,1.35,0.0,WeatherDisplay:10.37,2013-07-28 05:17:00,
2013-07-28 06:23:00,57.3,55.0,29.55,SW,226,3.0,3.0,92,1.29,RA,,1.52,0.0,WeatherDisplay:10.37,2013-07-28 05:23:00,
2013-07-28 06:28:00,57.3,55.0,29.55,SW,218,2.3,2.3,92,1.31,RA,,1.57,0.0,WeatherDisplay:10.37,2013-07-28 05:28:00,
2013-07-28 06:33:00,57.3,55.0,29.55,SW,218,3.0,3.0,92,1.21,RA,,1.59,0.0,WeatherDisplay:10.37,2013-07-28 05:33:00,
2013-07-28 06:38:00,57.3,55.9,29.55,SW,217,0.0,0.8,95,1.21,RA,,1.67,0.0,WeatherDisplay:10.37,2013-07-28 05:38:00,
2013-07-28 06:43:00,57.3,55.9,29.54,SSE,164,3.5,3.5,95,1.31,RA,,1.78,5.0,WeatherDisplay:10.37,2013-07-28 05:43:00,
2013-07-28 06:48:00,57.3,55.3,29.55,ESE,116,5.8,5.8,93,1.23,RA,,1.80,14.0,WeatherDisplay:10.37,2013-07-28 05:48:00,
2013-07-28 06:53:00,57.3,55.3,29.55,ESE,118,2.3,2.3,93,1.13,RA,,1.81,11.0,WeatherDisplay:10.37,2013-07-28 05:53:00,
2013-07-28 06:58:00,57.3,55.3,29.55,ESE,118,3.5,3.5,93,1.10,RA,,1.82,7.0,WeatherDisplay:10.37,2013-07-28 05:58:00,
2013-07-28 07:03:00,57.3,55.3,29.55,ESE,119,4.6,4.6,93,1.05,RA,,1.83,7.0,WeatherDisplay:10.37,2013-07-28 06:03:00,
2013-07-28 07:08:00,57.3,55.3,29.55,ESE,118,1.2,1.2,93,0.91,RA,,1.83,11.0,WeatherDisplay:10.37,2013-07-28 06:08:00,
2013-07-28 07:13:00,57.3,55.3,29.55,ESE,111,3.5,3.5,93,0.75,RA,,1.83,12.0,WeatherDisplay:10.37,2013-07-28 06:13:00,
2013-07-28 07:18:00,57.3,55.3,29.55,ESE,106,4.6,4.6,93,0.55,RA,,1.83,21.0,WeatherDisplay:10.37,2013-07-28 06:18:00,
2013-07-28 07:23:00,57.3,55.3,29.55,ESE,105,3.5,3.5,93,0.33,RA,,1.84,21.0,WeatherDisplay:10.37,2013-07-28 06:23:00,
2013-07-28 07:28:00,57.3,55.3,29.55,ESE,111,5.8,5.8,93,0.28,RA,,1.84,18.0,WeatherDisplay:10.37,2013-07-28 06:28:00,
2013-07-28 07:33:00,57.3,55.3,29.54,ESE,113,5.0,5.0,93,0.26,RA,,1.85,19.0,WeatherDisplay:10.37,2013-07-28 06:33:00,
2013-07-28 07:38:00,57.3,55.3,29.54,ESE,114,3.5,3.5,93,0.21,RA,,1.85,23.0,WeatherDisplay:10.37,2013-07-28 06:38:00,
2013-07-28 07:43:00,57.3,55.3,29.54,ESE,106,5.8,5.8,93,0.07,OVC,,1.85,21.0,WeatherDisplay:10.37,2013-07-28 06:43:00,
2013-07-28 07:48:00,57.3,55.3,29.54,ESE,105,3.0,3.0,93,0.06,OVC,,1.85,23.0,WeatherDisplay:10.37,2013-07-28 06:48:00,
2013-07-28 07:53:00,57.3,55.3,29.54,ESE,107,2.3,2.3,93,0.05,RA,,1.86,25.0,WeatherDisplay:10.37,2013-07-28 06:53:00,
2013-07-28 07:58:00,57.3,55.3,29.54,ESE,106,1.0,0.0,93,0.04,RA,,1.86,23.0,WeatherDisplay:10.37,2013-07-28 06:58:00,
2013-07-28 08:03:00,57.3,55.3,29.55,ESE,107,2.3,2.3,93,0.03,OVC,,1.86,18.0,WeatherDisplay:10.37,2013-07-28 07:03:00,
2013-07-28 08:08:00,57.3,55.3,29.55,ESE,106,3.5,3.5,93,0.03,OVC,,1.86,14.0,WeatherDisplay:10.37,2013-07-28 07:08:00,
2013-07-28 08:13:00,57.3,55.3,29.55,ESE,106,2.3,2.3,93,0.02,OVC,,1.87,12.0,WeatherDisplay:10.37,2013-07-28 07:13:00,
2013-07-28 08:18:00,57.3,55.3,29.55,ESE,106,2.3,2.3,93,0.03,RA,,1.87,9.0,WeatherDisplay:10.37,2013-07-28 07:18:00,
2013-07-28 08:23:00,57.3,55.3,29.54,ESE,107,0.0,0.0,93,0.02,RA,,1.87,11.0,WeatherDisplay:10.37,2013-07-28 07:23:00,
2013-07-28 08:28:00,57.3,55.3,29.54,ESE,107,0.0,0.0,93,0.02,OVC,,1.87,11.0,WeatherDisplay:10.37,2013-07-28 07:28:00,
2013-07-28 08:33:00,57.3,55.3,29.54,ESE,107,0.0,0.0,93,0.02,RA,,1.87,12.0,WeatherDisplay:10.37,2013-07-28 07:33:00,
2013-07-28 08:38:00,57.3,55.3,29.55,ESE,106,0.0,0.0,93,0.02,RA,,1.87,12.0,WeatherDisplay:10.37,2013-07-28 07:38:00,
2013-07-28 08:43:00,57.3,55.3,29.54,ESE,107,0.0,0.0,93,0.02,OVC,,1.87,11.0,WeatherDisplay:10.37,2013-07-28 07:43:00,
2013-07-28 08:48:00,57.3,55.3,29.54,ESE,106,0.0,0.0,93,0.02,OVC,,1.87,9.0,WeatherDisplay:10.37,2013-07-28 07:48:00,
2013-07-28 08:53:00,57.3,55.3,29.54,ESE,106,0.0,0.0,93,0.02,RA,,1.88,9.0,WeatherDisplay:10.37,2013-07-28 07:53:00,
2013-07-28 08:58:00,57.3,55.3,29.54,ESE,106,0.0,0.0,93,0.02,RA,,1.89,11.0,WeatherDisplay:10.37,2013-07-28 07:58:00,
2013-07-28 09:03:00,57.3,55.3,29.54,ESE,106,0.0,0.0,93,0.03,RA,,1.89,12.0,WeatherDisplay:10.37,2013-07-28 08:03:00,
2013-07-28 09:08:00,57.3,55.3,29.54,ESE,106,0.0,0.0,93,0.03,RA,,1.89,12.0,WeatherDisplay:10.37,2013-07-28 08:08:00,
2013-07-28 09:13:00,57.3,55.3,29.54,ESE,106,0.0,0.0,93,0.04,RA,,1.90,16.0,WeatherDisplay:10.37,2013-07-28 08:13:00,
2013-07-28 09:18:00,57.3,55.3,29.54,ESE,107,0.0,0.0,93,0.03,RA,,1.90,16.0,WeatherDisplay:10.37,2013-07-28 08:18:00,
2013-07-28 09:23:00,57.3,55.3,29.53,ESE,106,0.0,0.0,93,0.04,RA,,1.91,18.0,WeatherDisplay:10.37,2013-07-28 08:23:00,
2013-07-28 09:28:00,57.3,55.3,29.53,ESE,106,0.0,0.0,93,0.05,RA,,1.91,21.0,WeatherDisplay:10.37,2013-07-28 08:28:00,
2013-07-28 09:33:00,57.3,55.3,29.53,ESE,107,0.0,0.0,93,0.05,RA,,1.92,26.0,WeatherDisplay:10.37,2013-07-28 08:33:00,
2013-07-28 09:38:00,57.3,55.3,29.53,ESE,106,0.0,0.0,93,0.06,RA,,1.93,26.0,WeatherDisplay:10.37,2013-07-28 08:38:00,
2013-07-28 09:43:00,57.3,55.3,29.53,ESE,106,0.0,0.0,93,0.06,RA,,1.93,30.0,WeatherDisplay:10.37,2013-07-28 08:43:00,
2013-07-28 09:48:00,57.3,55.3,29.53,ESE,106,0.0,0.0,93,0.06,RA,,1.94,30.0,WeatherDisplay:10.37,2013-07-28 08:48:00,
2013-07-28 09:53:00,57.3,55.3,29.53,ESE,106,0.0,0.0,93,0.06,RA,,1.94,32.0,WeatherDisplay:10.37,2013-07-28 08:53:00,
2013-07-28 09:58:00,57.3,55.3,29.53,ESE,106,0.0,0.0,93,0.07,RA,,1.95,33.0,WeatherDisplay:10.37,2013-07-28 08:58:00,
2013-07-28 10:03:00,57.3,55.3,29.52,ESE,106,0.0,0.0,93,0.06,RA,,1.95,39.0,WeatherDisplay:10.37,2013-07-28 09:03:00,
2013-07-28 10:08:00,57.3,55.3,29.52,ESE,106,0.0,0.0,93,0.07,RA,,1.96,44.0,WeatherDisplay:10.37,2013-07-28 09:08:00,
2013-07-28 10:13:00,57.4,55.7,29.52,ESE,106,0.0,0.0,94,0.07,RA,,1.97,49.0,WeatherDisplay:10.37,2013-07-28 09:13:00,
2013-07-28 10:18:00,57.5,55.8,29.52,ESE,107,0.0,0.0,94,0.08,RA,,1.98,49.0,WeatherDisplay:10.37,2013-07-28 09:18:00,
2013-07-28 10:23:00,57.6,55.9,29.52,ESE,109,0.0,0.0,94,0.07,RA,,1.98,53.0,WeatherDisplay:10.37,2013-07-28 09:23:00,
2013-07-28 10:28:00,57.7,56.0,29.52,ESE,109,0.0,0.0,94,0.07,RA,,1.98,53.0,WeatherDisplay:10.37,2013-07-28 09:28:00,
2013-07-28 10:33:00,57.8,56.1,29.52,ESE,109,0.0,0.2,94,0.07,RA,,1.99,58.0,WeatherDisplay:10.37,2013-07-28 09:33:00,
2013-07-28 10:38:00,57.9,56.2,29.52,ESE,107,0.0,0.0,94,0.07,RA,,2.00,63.0,WeatherDisplay:10.37,2013-07-28 09:38:00,
2013-07-28 10:43:00,57.9,56.2,29.52,ESE,107,0.0,0.0,94,0.07,RA,,2.00,65.0,WeatherDisplay:10.37,2013-07-28 09:43:00,
2013-07-28 10:48:00,58.1,56.4,29.52,ESE,102,0.0,0.0,94,0.07,RA,,2.01,65.0,WeatherDisplay:10.37,2013-07-28 09:48:00,
2013-07-28 10:53:00,58.1,56.4,29.52,ESE,107,0.0,0.2,94,0.06,RA,,2.01,67.0,WeatherDisplay:10.37,2013-07-28 09:53:00,
2013-07-28 10:58:00,58.2,56.5,29.52,ESE,107,0.0,0.0,94,0.06,RA,,2.02,69.0,WeatherDisplay:10.37,2013-07-28 09:58:00,
2013-07-28 11:04:00,58.2,56.5,29.52,ESE,107,0.0,0.0,94,0.06,RA,,2.02,74.0,WeatherDisplay:10.37,2013-07-28 10:04:00,
2013-07-28 11:09:00,58.2,56.5,29.52,ESE,107,0.0,0.0,94,0.06,OVC,,2.02,81.0,WeatherDisplay:10.37,2013-07-28 10:09:00,
2013-07-28 11:14:00,58.3,56.6,29.52,ESE,109,0.0,0.2,94,0.06,RA,,2.02,77.0,WeatherDisplay:10.37,2013-07-28 10:14:00,
2013-07-28 11:19:00,58.3,56.6,29.52,ESE,109,0.0,0.0,94,0.05,RA,,2.02,63.0,WeatherDisplay:10.37,2013-07-28 10:19:00,
2013-07-28 11:24:00,58.4,56.7,29.52,ESE,109,0.0,0.0,94,0.05,OVC,,2.03,63.0,WeatherDisplay:10.37,2013-07-28 10:24:00,
2013-07-28 11:29:00,58.5,56.8,29.52,SSE,157,1.2,0.0,94,0.05,RA,,2.03,69.0,WeatherDisplay:10.37,2013-07-28 10:29:00,
2013-07-28 11:34:00,58.6,56.9,29.52,SSE,157,0.0,0.0,94,0.04,RA,,2.04,67.0,WeatherDisplay:10.37,2013-07-28 10:34:00,
2013-07-28 11:39:00,58.6,56.9,29.52,SSE,156,2.3,2.3,94,0.04,RA,,2.04,88.0,WeatherDisplay:10.37,2013-07-28 10:39:00,
2013-07-28 11:44:00,58.6,56.9,29.52,SSE,157,0.0,0.0,94,0.05,RA,,2.05,93.0,WeatherDisplay:10.37,2013-07-28 10:44:00,
2013-07-28 11:49:00,58.7,57.0,29.52,SSE,157,2.3,2.3,94,0.04,RA,,2.05,100.0,WeatherDisplay:10.37,2013-07-28 10:49:00,
2013-07-28 11:54:00,58.7,57.0,29.52,SSE,157,0.0,0.0,94,0.04,BKN,,2.05,104.0,WeatherDisplay:10.37,2013-07-28 10:54:00,
2013-07-28 11:59:00,58.8,57.1,29.52,SSE,156,0.0,0.8,94,0.04,RA,,2.06,93.0,WeatherDisplay:10.37,2013-07-28 10:59:00,
2013-07-28 12:04:00,58.8,57.1,29.53,SSE,158,0.0,0.4,94,0.04,RA,,2.06,98.0,WeatherDisplay:10.37,2013-07-28 11:04:00,
2013-07-28 12:09:00,58.7,57.0,29.52,South,191,1.2,1.2,94,0.04,OVC,,2.06,84.0,WeatherDisplay:10.37,2013-07-28 11:09:00,
2013-07-28 12:14:00,58.5,56.5,29.52,South,190,0.0,0.0,93,0.04,RA,,2.06,56.0,WeatherDisplay:10.37,2013-07-28 11:14:00,
2013-07-28 12:19:00,58.4,56.4,29.52,South,190,0.0,0.0,93,0.06,RA,,2.08,58.0,WeatherDisplay:10.37,2013-07-28 11:19:00,
2013-07-28 12:24:00,58.3,56.3,29.52,South,190,0.0,0.0,93,0.06,RA,,2.09,74.0,WeatherDisplay:10.37,2013-07-28 11:24:00,
2013-07-28 12:29:00,58.3,56.3,29.52,South,190,3.5,0.0,93,0.06,RA,,2.09,88.0,WeatherDisplay:10.37,2013-07-28 11:29:00,
2013-07-28 12:34:00,58.3,56.3,29.53,South,190,2.3,2.3,93,0.06,RA,,2.09,93.0,WeatherDisplay:10.37,2013-07-28 11:34:00,
2013-07-28 12:39:00,58.2,56.2,29.52,South,190,1.2,1.2,93,0.06,OVC,,2.09,97.0,WeatherDisplay:10.37,2013-07-28 11:39:00,
2013-07-28 12:44:00,58.2,56.2,29.52,South,191,1.0,0.0,93,0.06,RA,,2.10,109.0,WeatherDisplay:10.37,2013-07-28 11:44:00,
2013-07-28 12:49:00,58.2,56.2,29.52,South,191,2.3,2.3,93,0.06,RA,,2.10,123.0,WeatherDisplay:10.37,2013-07-28 11:49:00,
2013-07-28 12:54:00,58.2,56.5,29.53,SSW,201,0.0,0.0,94,0.06,RA,,2.11,114.0,WeatherDisplay:10.37,2013-07-28 11:54:00,
2013-07-28 12:59:00,58.3,56.6,29.53,SSW,201,0.0,0.0,94,0.06,RA,,2.11,100.0,WeatherDisplay:10.37,2013-07-28 11:59:00,
2013-07-28 13:04:00,58.4,56.7,29.53,SSW,200,0.0,0.0,94,0.06,BKN,,2.11,105.0,WeatherDisplay:10.37,2013-07-28 12:04:00,
2013-07-28 13:09:00,58.4,56.7,29.53,SSW,202,0.0,0.0,94,0.06,BKN,,2.11,97.0,WeatherDisplay:10.37,2013-07-28 12:09:00,
2013-07-28 13:14:00,58.5,56.8,29.53,SSW,202,0.0,0.0,94,0.05,OVC,,2.11,95.0,WeatherDisplay:10.37,2013-07-28 12:14:00,
2013-07-28 13:19:00,58.5,56.8,29.53,SSW,202,1.2,0.0,94,0.04,RA,,2.12,84.0,WeatherDisplay:10.37,2013-07-28 12:19:00,
2013-07-28 13:24:00,58.6,56.9,29.53,SSW,201,2.3,2.3,94,0.03,RA,,2.12,81.0,WeatherDisplay:10.37,2013-07-28 12:24:00,
2013-07-28 13:29:00,58.5,56.5,29.53,SSW,201,0.0,0.0,93,0.02,OVC,,2.12,84.0,WeatherDisplay:10.37,2013-07-28 12:29:00,
2013-07-28 13:34:00,58.5,56.5,29.53,SSW,202,0.0,0.0,93,0.02,OVC,,2.12,84.0,WeatherDisplay:10.37,2013-07-28 12:34:00,
2013-07-28 13:39:00,58.4,56.4,29.53,SSW,202,0.0,0.0,93,0.02,OVC,,2.12,86.0,WeatherDisplay:10.37,2013-07-28 12:39:00,
2013-07-28 13:44:00,58.4,56.4,29.53,SSW,202,1.2,1.2,93,0.02,OVC,,2.12,95.0,WeatherDisplay:10.37,2013-07-28 12:44:00,
2013-07-28 13:49:00,58.4,56.4,29.53,SSW,203,3.5,3.5,93,0.02,OVC,,2.12,105.0,WeatherDisplay:10.37,2013-07-28 12:49:00,
2013-07-28 13:54:00,58.5,56.8,29.53,SSW,207,3.5,3.5,94,0.01,BKN,,2.12,118.0,WeatherDisplay:10.37,2013-07-28 12:54:00,
2013-07-28 13:59:00,58.5,56.5,29.53,SSW,207,1.2,1.2,93,0.01,BKN,,2.12,142.0,WeatherDisplay:10.37,2013-07-28 12:59:00,
2013-07-28 14:04:00,58.6,56.9,29.53,SW,217,0.0,0.1,94,0.01,BKN,,2.12,162.0,WeatherDisplay:10.37,2013-07-28 13:04:00,
2013-07-28 14:09:00,58.8,57.1,29.53,SW,231,3.5,3.5,94,0.01,BKN,,2.12,179.0,WeatherDisplay:10.37,2013-07-28 13:09:00,
2013-07-28 14:14:00,59.0,57.3,29.53,SW,234,3.5,0.0,94,0.01,BKN,,2.12,174.0,WeatherDisplay:10.37,2013-07-28 13:14:00,
2013-07-28 14:19:00,59.2,57.5,29.53,SW,236,3.5,3.5,94,0.00,BKN,,2.12,158.0,WeatherDisplay:10.37,2013-07-28 13:19:00,
2013-07-28 14:24:00,59.4,57.7,29.53,WSW,237,3.5,0.0,94,0.00,BKN,,2.12,151.0,WeatherDisplay:10.37,2013-07-28 13:24:00,
2013-07-28 14:29:00,59.5,57.8,29.53,WSW,237,1.2,0.0,94,0.00,BKN,,2.12,148.0,WeatherDisplay:10.37,2013-07-28 13:29:00,
2013-07-28 14:34:00,59.7,58.0,29.53,WSW,237,2.3,2.3,94,0.00,BKN,,2.12,179.0,WeatherDisplay:10.37,2013-07-28 13:34:00,
2013-07-28 14:39:00,59.8,58.1,29.53,WSW,239,1.2,1.2,94,0.00,BKN,,2.12,197.0,WeatherDisplay:10.37,2013-07-28 13:39:00,
2013-07-28 14:44:00,60.0,58.3,29.53,SW,232,4.6,4.6,94,0.00,BKN,,2.12,204.0,WeatherDisplay:10.37,2013-07-28 13:44:00,
2013-07-28 14:49:00,60.0,58.3,29.53,NW,308,9.0,9.0,94,0.00,BKN,,2.12,199.0,WeatherDisplay:10.37,2013-07-28 13:49:00,
2013-07-28 14:54:00,59.9,57.9,29.53,WSW,245,12.0,12.0,93,0.00,BKN,,2.12,195.0,WeatherDisplay:10.37,2013-07-28 13:54:00,
2013-07-28 14:59:00,59.5,57.2,29.53,WSW,246,3.5,3.5,92,0.00,BKN,,2.12,162.0,WeatherDisplay:10.37,2013-07-28 13:59:00,
2013-07-28 15:04:00,59.5,57.2,29.53,WSW,242,0.0,0.0,92,0.00,BKN,,2.12,149.0,WeatherDisplay:10.37,2013-07-28 14:04:00,
2013-07-28 15:09:00,59.4,57.1,29.53,WSW,240,6.9,6.9,92,0.00,BKN,,2.12,121.0,WeatherDisplay:10.37,2013-07-28 14:09:00,
2013-07-28 15:14:00,59.3,56.7,29.53,SW,236,4.6,4.6,91,0.00,BKN,,2.12,102.0,WeatherDisplay:10.37,2013-07-28 14:14:00,
2013-07-28 15:19:00,59.2,56.6,29.54,SW,231,2.3,2.3,91,0.00,BKN,,2.12,111.0,WeatherDisplay:10.37,2013-07-28 14:19:00,
2013-07-28 15:24:00,59.1,56.5,29.54,SW,233,3.5,3.5,91,0.00,BKN,,2.12,105.0,WeatherDisplay:10.37,2013-07-28 14:24:00,
2013-07-28 15:29:00,59.1,56.8,29.53,SW,233,2.3,0.0,92,0.00,BKN,,2.12,86.0,WeatherDisplay:10.37,2013-07-28 14:29:00,
2013-07-28 15:34:00,59.1,56.8,29.53,SW,223,3.5,3.5,92,0.00,BKN,,2.12,83.0,WeatherDisplay:10.37,2013-07-28 14:34:00,
2013-07-28 15:39:00,59.1,56.8,29.53,WSW,237,5.8,5.8,92,0.00,OVC,,2.12,81.0,WeatherDisplay:10.37,2013-07-28 14:39:00,
2013-07-28 15:44:00,59.1,56.8,29.53,West,274,3.5,0.0,92,0.00,BKN,,2.12,132.0,WeatherDisplay:10.37,2013-07-28 14:44:00,
2013-07-28 15:49:00,59.1,56.8,29.53,WSW,238,9.2,9.2,92,0.00,BKN,,2.12,135.0,WeatherDisplay:10.37,2013-07-28 14:49:00,
2013-07-28 15:54:00,59.1,56.5,29.53,WSW,250,3.5,3.5,91,0.00,BKN,,2.12,127.0,WeatherDisplay:10.37,2013-07-28 14:54:00,
2013-07-28 15:59:00,59.2,56.9,29.53,WSW,240,4.0,4.0,92,0.00,BKN,,2.12,132.0,WeatherDisplay:10.37,2013-07-28 14:59:00,
2013-07-28 16:04:00,59.3,57.0,29.53,WSW,242,6.9,6.9,92,0.00,BKN,,2.12,128.0,WeatherDisplay:10.37,2013-07-28 15:04:00,
2013-07-28 16:10:00,59.4,56.8,29.53,WSW,248,2.3,2.3,91,0.00,BKN,,2.12,135.0,WeatherDisplay:10.37,2013-07-28 15:10:00,
2013-07-28 16:15:00,59.6,57.3,29.53,WSW,247,0.0,0.0,92,0.00,BKN,,2.12,135.0,WeatherDisplay:10.37,2013-07-28 15:15:00,
2013-07-28 16:20:00,59.8,57.5,29.54,WSW,246,0.0,0.0,92,0.00,BKN,,2.12,111.0,WeatherDisplay:10.37,2013-07-28 15:20:00,
2013-07-28 16:25:00,60.0,57.7,29.54,WSW,248,0.0,0.0,92,0.00,BKN,,2.12,88.0,WeatherDisplay:10.37,2013-07-28 15:25:00,
2013-07-28 16:30:00,60.0,57.7,29.54,WSW,249,0.0,0.2,92,0.00,BKN,,2.12,74.0,WeatherDisplay:10.37,2013-07-28 15:30:00,
2013-07-28 16:35:00,60.0,57.4,29.54,WSW,249,0.0,0.0,91,0.00,BKN,,2.12,79.0,WeatherDisplay:10.37,2013-07-28 15:35:00,
2013-07-28 16:40:00,60.0,57.4,29.54,WNW,292,1.2,0.0,91,0.00,BKN,,2.12,84.0,WeatherDisplay:10.37,2013-07-28 15:40:00,
2013-07-28 16:45:00,60.0,57.4,29.54,NW,309,1.2,1.2,91,0.00,BKN,,2.12,69.0,WeatherDisplay:10.37,2013-07-28 15:45:00,
2013-07-28 16:50:00,60.0,57.7,29.54,WNW,299,2.3,2.3,92,0.00,BKN,,2.12,69.0,WeatherDisplay:10.37,2013-07-28 15:50:00,
2013-07-28 16:55:00,60.0,57.7,29.54,WNW,298,1.0,1.0,92,0.00,OVC,,2.12,58.0,WeatherDisplay:10.37,2013-07-28 15:55:00,
2013-07-28 17:00:00,60.0,57.7,29.54,WNW,298,0.0,0.0,92,0.00,OVC,,2.12,51.0,WeatherDisplay:10.37,2013-07-28 16:00:00,
2013-07-28 17:05:00,60.0,57.7,29.54,WNW,298,0.0,0.0,92,0.00,OVC,,2.12,67.0,WeatherDisplay:10.37,2013-07-28 16:05:00,
2013-07-28 17:10:00,59.9,57.6,29.54,WNW,298,0.0,0.0,92,0.00,BKN,,2.12,83.0,WeatherDisplay:10.37,2013-07-28 16:10:00,
2013-07-28 17:15:00,60.0,57.7,29.54,WNW,298,0.0,0.0,92,0.00,BKN,,2.12,90.0,WeatherDisplay:10.37,2013-07-28 16:15:00,
2013-07-28 17:20:00,60.0,57.7,29.55,WNW,298,0.0,0.0,92,0.00,BKN,,2.12,90.0,WeatherDisplay:10.37,2013-07-28 16:20:00,
2013-07-28 17:25:00,60.0,57.7,29.55,WNW,298,0.0,0.0,92,0.00,BKN,,2.12,109.0,WeatherDisplay:10.37,2013-07-28 16:25:00,
2013-07-28 17:30:00,60.0,57.7,29.55,WNW,298,2.3,0.0,92,0.00,BKN,,2.12,102.0,WeatherDisplay:10.37,2013-07-28 16:30:00,
2013-07-28 17:35:00,60.1,57.8,29.55,WNW,298,0.0,0.0,92,0.00,BKN,,2.12,86.0,WeatherDisplay:10.37,2013-07-28 16:35:00,
2013-07-28 17:40:00,60.2,57.9,29.54,WNW,298,0.0,0.0,92,0.00,BKN,,2.12,79.0,WeatherDisplay:10.37,2013-07-28 16:40:00,
2013-07-28 17:45:00,60.4,58.1,29.54,WNW,298,0.0,0.0,92,0.00,BKN,,2.12,84.0,WeatherDisplay:10.37,2013-07-28 16:45:00,
2013-07-28 17:50:00,60.5,58.2,29.55,WNW,298,0.0,0.0,92,0.00,BKN,,2.12,95.0,WeatherDisplay:10.37,2013-07-28 16:50:00,
2013-07-28 17:55:00,60.6,58.3,29.55,WNW,298,0.0,0.0,92,0.00,BKN,,2.12,97.0,WeatherDisplay:10.37,2013-07-28 16:55:00,
2013-07-28 18:00:00,60.7,58.7,29.55,WNW,300,0.0,0.0,93,0.00,BKN,,2.12,95.0,WeatherDisplay:10.37,2013-07-28 17:00:00,
2013-07-28 18:05:00,60.8,58.8,29.55,WNW,300,0.0,0.0,93,0.00,BKN,,2.12,97.0,WeatherDisplay:10.37,2013-07-28 17:05:00,
2013-07-28 18:10:00,60.8,58.5,29.55,WNW,300,0.0,0.0,92,0.00,BKN,,2.12,98.0,WeatherDisplay:10.37,2013-07-28 17:10:00,
2013-07-28 18:15:00,60.9,58.6,29.55,WNW,300,0.0,0.0,92,0.00,BKN,,2.12,97.0,WeatherDisplay:10.37,2013-07-28 17:15:00,
2013-07-28 18:20:00,61.0,58.7,29.55,WNW,300,0.0,0.0,92,0.00,BKN,,2.12,91.0,WeatherDisplay:10.37,2013-07-28 17:20:00,
2013-07-28 18:25:00,61.1,58.8,29.55,WNW,301,3.5,3.5,92,0.00,BKN,,2.12,81.0,WeatherDisplay:10.37,2013-07-28 17:25:00,
2013-07-28 18:30:00,61.1,58.8,29.55,WNW,300,1.0,1.0,92,0.00,BKN,,2.12,62.0,WeatherDisplay:10.37,2013-07-28 17:30:00,
2013-07-28 18:35:00,61.2,58.9,29.55,NW,317,0.0,0.0,92,0.00,BKN,,2.12,44.0,WeatherDisplay:10.37,2013-07-28 17:35:00,
2013-07-28 18:40:00,61.1,58.8,29.56,NW,317,0.0,0.0,92,0.00,BKN,,2.12,49.0,WeatherDisplay:10.37,2013-07-28 17:40:00,
2013-07-28 18:45:00,61.1,58.8,29.56,NW,317,0.0,0.0,92,0.01,RA,,2.13,74.0,WeatherDisplay:10.37,2013-07-28 17:45:00,
2013-07-28 18:50:00,61.1,58.8,29.56,NW,317,0.0,0.0,92,0.02,RA,,2.13,81.0,WeatherDisplay:10.37,2013-07-28 17:50:00,
2013-07-28 18:55:00,61.2,58.9,29.56,West,277,4.0,4.0,92,0.02,RA,,2.13,70.0,WeatherDisplay:10.37,2013-07-28 17:55:00,
2013-07-28 19:00:00,61.3,59.0,29.56,West,276,0.0,0.0,92,0.02,BKN,,2.13,63.0,WeatherDisplay:10.37,2013-07-28 18:00:00,
2013-07-28 19:05:00,61.2,58.9,29.56,West,273,1.2,1.2,92,0.02,BKN,,2.13,53.0,WeatherDisplay:10.37,2013-07-28 18:05:00,
2013-07-28 19:10:00,61.2,58.9,29.56,WSW,256,3.5,3.5,92,0.02,BKN,,2.13,72.0,WeatherDisplay:10.37,2013-07-28 18:10:00,
2013-07-28 19:15:00,61.3,59.0,29.56,WSW,256,1.0,0.0,92,0.02,BKN,,2.13,60.0,WeatherDisplay:10.37,2013-07-28 18:15:00,
2013-07-28 19:20:00,61.3,59.0,29.56,WSW,256,0.0,0.0,92,0.02,BKN,,2.13,42.0,WeatherDisplay:10.37,2013-07-28 18:20:00,
2013-07-28 19:25:00,61.4,59.1,29.57,WSW,256,0.0,0.0,92,0.02,BKN,,2.13,44.0,WeatherDisplay:10.37,2013-07-28 18:25:00,
2013-07-28 19:30:00,61.4,59.1,29.56,WSW,256,0.0,0.0,92,0.02,BKN,,2.13,44.0,WeatherDisplay:10.37,2013-07-28 18:30:00,
2013-07-28 19:35:00,61.4,59.1,29.57,WSW,256,0.0,0.0,92,0.02,BKN,,2.13,42.0,WeatherDisplay:10.37,2013-07-28 18:35:00,
2013-07-28 19:40:00,61.3,59.0,29.57,WSW,256,0.0,0.0,92,0.02,BKN,,2.13,42.0,WeatherDisplay:10.37,2013-07-28 18:40:00,
2013-07-28 19:45:00,61.3,59.0,29.57,WSW,256,0.0,0.0,92,0.01,BKN,,2.13,42.0,WeatherDisplay:10.37,2013-07-28 18:45:00,
2013-07-28 19:50:00,61.2,58.9,29.57,WSW,257,0.0,0.0,92,0.00,BKN,,2.13,37.0,WeatherDisplay:10.37,2013-07-28 18:50:00,
2013-07-28 19:55:00,61.2,58.9,29.57,WSW,256,0.0,0.0,92,0.00,BKN,,2.13,35.0,WeatherDisplay:10.37,2013-07-28 18:55:00,
2013-07-28 20:00:00,61.2,58.9,29.57,WSW,256,0.0,0.0,92,0.00,BKN,,2.13,32.0,WeatherDisplay:10.37,2013-07-28 19:00:00,
2013-07-28 20:05:00,61.1,58.8,29.58,WSW,256,0.0,0.0,92,0.00,BKN,,2.13,33.0,WeatherDisplay:10.37,2013-07-28 19:05:00,
2013-07-28 20:10:00,61.0,58.4,29.58,WSW,256,0.0,0.0,91,0.00,BKN,,2.13,30.0,WeatherDisplay:10.37,2013-07-28 19:10:00,
2013-07-28 20:15:00,60.9,58.3,29.58,WSW,256,0.0,0.0,91,0.00,BKN,,2.13,28.0,WeatherDisplay:10.37,2013-07-28 19:15:00,
2013-07-28 20:20:00,60.8,58.2,29.58,WSW,256,0.0,0.0,91,0.00,BKN,,2.13,26.0,WeatherDisplay:10.37,2013-07-28 19:20:00,
2013-07-28 20:25:00,60.7,58.1,29.59,WSW,256,0.0,0.0,91,0.00,BKN,,2.13,25.0,WeatherDisplay:10.37,2013-07-28 19:25:00,
2013-07-28 20:30:00,60.6,58.0,29.59,WSW,256,0.0,0.0,91,0.00,BKN,,2.13,23.0,WeatherDisplay:10.37,2013-07-28 19:30:00,
2013-07-28 20:35:00,60.5,57.9,29.59,WSW,257,0.0,0.0,91,0.00,BKN,,2.13,19.0,WeatherDisplay:10.37,2013-07-28 19:35:00,
2013-07-28 20:40:00,60.4,57.8,29.59,WSW,255,3.5,3.5,91,0.00,BKN,,2.13,19.0,WeatherDisplay:10.37,2013-07-28 19:40:00,
2013-07-28 20:45:00,60.4,57.8,29.58,SW,228,3.5,3.5,91,0.00,BKN,,2.13,21.0,WeatherDisplay:10.37,2013-07-28 19:45:00,
2013-07-28 20:50:00,60.3,57.4,29.59,SSW,198,9.2,9.2,90,0.00,BKN,,2.13,16.0,WeatherDisplay:10.37,2013-07-28 19:50:00,
2013-07-28 20:55:00,60.1,57.2,29.59,South,187,3.5,3.5,90,0.00,BKN,,2.13,14.0,WeatherDisplay:10.37,2013-07-28 19:55:00,
2013-07-28 21:00:00,60.0,56.7,29.59,South,190,3.5,3.5,89,0.00,BKN,,2.13,9.0,WeatherDisplay:10.37,2013-07-28 20:00:00,
2013-07-28 21:05:00,59.9,56.6,29.59,South,190,4.6,4.6,89,0.00,BKN,,2.13,7.0,WeatherDisplay:10.37,2013-07-28 20:05:00,
2013-07-28 21:10:00,59.8,56.6,29.59,SSE,167,3.5,3.5,89,0.00,BKN,,2.13,7.0,WeatherDisplay:10.37,2013-07-28 20:10:00,
2013-07-28 21:15:00,59.7,56.1,29.59,SSW,193,5.0,5.0,88,0.00,BKN,,2.13,9.0,WeatherDisplay:10.37,2013-07-28 20:15:00,
2013-07-28 21:20:00,59.7,56.1,29.59,SSW,213,3.5,3.5,88,0.00,BKN,,2.13,5.0,WeatherDisplay:10.37,2013-07-28 20:20:00,
2013-07-28 21:25:00,59.7,56.5,29.59,SW,215,3.5,3.7,89,0.00,OVC,,2.13,0.0,WeatherDisplay:10.37,2013-07-28 20:25:00,
2013-07-28 21:30:00,59.7,56.5,29.59,SW,214,0.0,0.0,89,0.00,OVC,,2.13,0.0,WeatherDisplay:10.37,2013-07-28 20:30:00,
2013-07-28 21:35:00,59.6,56.0,29.59,SW,214,0.0,0.9,88,0.00,OVC,,2.13,0.0,WeatherDisplay:10.37,2013-07-28 20:35:00,
2013-07-28 21:40:00,59.6,56.0,29.59,SW,215,3.5,3.5,88,0.00,OVC,,2.13,0.0,WeatherDisplay:10.37,2013-07-28 20:40:00,
2013-07-28 21:45:00,59.5,56.3,29.60,SSW,213,3.5,3.5,89,0.00,OVC,,2.13,0.0,WeatherDisplay:10.37,2013-07-28 20:45:00,
2013-07-28 21:50:00,59.4,56.2,29.60,SSW,213,3.5,3.5,89,0.00,OVC,,2.13,0.0,WeatherDisplay:10.37,2013-07-28 20:50:00,
2013-07-28 21:55:00,59.2,56.0,29.60,SSW,213,2.3,2.3,89,0.00,OVC,,2.13,0.0,WeatherDisplay:10.37,2013-07-28 20:55:00,
2013-07-28 22:00:00,59.1,55.9,29.60,SSW,211,3.0,3.0,89,0.00,CLR,,2.13,0.0,WeatherDisplay:10.37,2013-07-28 21:00:00,
2013-07-28 22:05:00,59.0,55.8,29.60,SSW,211,3.5,3.5,89,0.00,CLR,,2.13,0.0,WeatherDisplay:10.37,2013-07-28 21:05:00,
2013-07-28 22:11:00,58.8,55.6,29.60,South,182,3.5,3.5,89,0.00,CLR,,2.13,0.0,WeatherDisplay:10.37,2013-07-28 21:11:00,
2013-07-28 22:16:00,58.7,55.5,29.60,South,181,2.3,2.3,89,0.00,CLR,,2.13,0.0,WeatherDisplay:10.37,2013-07-28 21:16:00,
2013-07-28 22:21:00,58.5,55.3,29.60,South,182,2.3,2.3,89,0.00,CLR,,2.13,0.0,WeatherDisplay:10.37,2013-07-28 21:21:00,
2013-07-28 22:26:00,58.4,55.2,29.60,South,182,3.5,3.5,89,0.00,CLR,,2.13,0.0,WeatherDisplay:10.37,2013-07-28 21:26:00,
2013-07-28 22:31:00,58.2,55.3,29.60,South,181,0.0,0.0,90,0.00,CLR,,2.13,0.0,WeatherDisplay:10.37,2013-07-28 21:31:00,
2013-07-28 22:36:00,58.1,55.2,29.60,South,181,3.5,3.5,90,0.00,CLR,,2.13,0.0,WeatherDisplay:10.37,2013-07-28 21:36:00,
2013-07-28 22:41:00,57.9,55.0,29.61,South,182,2.3,2.3,90,0.00,CLR,,2.13,0.0,WeatherDisplay:10.37,2013-07-28 21:41:00,
2013-07-28 22:46:00,57.8,54.9,29.61,South,181,0.0,0.0,90,0.00,CLR,,2.13,0.0,WeatherDisplay:10.37,2013-07-28 21:46:00,
2013-07-28 22:51:00,57.6,54.7,29.61,South,182,3.5,3.5,90,0.00,CLR,,2.13,0.0,WeatherDisplay:10.37,2013-07-28 21:51:00,
2013-07-28 22:56:00,57.4,54.5,29.61,South,181,3.5,3.5,90,0.00,CLR,,2.13,0.0,WeatherDisplay:10.37,2013-07-28 21:56:00,
2013-07-28 23:01:00,57.3,54.4,29.61,South,181,0.0,0.0,90,0.00,CLR,,2.13,0.0,WeatherDisplay:10.37,2013-07-28 22:01:00,
2013-07-28 23:06:00,57.3,54.4,29.61,South,180,0.0,0.0,90,0.00,CLR,,2.13,0.0,WeatherDisplay:10.37,2013-07-28 22:06:00,
2013-07-28 23:11:00,57.3,54.4,29.61,South,181,3.5,0.0,90,0.00,CLR,,2.13,0.0,WeatherDisplay:10.37,2013-07-28 22:11:00,
2013-07-28 23:16:00,57.2,54.3,29.61,South,181,0.0,0.0,90,0.00,CLR,,2.13,0.0,WeatherDisplay:10.37,2013-07-28 22:16:00,
2013-07-28 23:21:00,57.0,54.4,29.61,South,181,0.0,0.0,91,0.00,CLR,,2.13,0.0,WeatherDisplay:10.37,2013-07-28 22:21:00,
2013-07-28 23:26:00,56.8,54.2,29.61,South,187,3.5,3.5,91,0.00,CLR,,2.13,0.0,WeatherDisplay:10.37,2013-07-28 22:26:00,
2013-07-28 23:31:00,56.6,53.7,29.61,SSW,210,3.0,3.0,90,0.00,CLR,,2.13,0.0,WeatherDisplay:10.37,2013-07-28 22:31:00,
2013-07-28 23:37:00,56.5,53.6,29.61,SSW,202,3.5,3.5,90,0.00,CLR,,2.13,0.0,WeatherDisplay:10.37,2013-07-28 22:37:00,
2013-07-28 23:42:00,56.4,53.5,29.61,SSW,202,2.0,2.0,90,0.00,CLR,,2.13,0.0,WeatherDisplay:10.37,2013-07-28 22:42:00,
2013-07-28 23:47:00,56.4,53.5,29.61,SSW,202,2.3,2.3,90,0.00,CLR,,2.13,0.0,WeatherDisplay:10.37,2013-07-28 22:47:00,
2013-07-28 23:52:00,56.3,53.7,29.60,SSW,202,0.0,0.0,91,0.00,CLR,,2.13,0.0,WeatherDisplay:10.37,2013-07-28 22:52:00,
2013-07-28 23:57:00,56.3,53.7,29.60,SSW,203,0.0,0.0,91,0.00,CLR,,2.13,0.0,WeatherDisplay:10.37,2013-07-28 22:57:00,